CZ-3C DEB, 40856

Orbit data source: Space-Track

CZ-3C DEB, 40856 is space debris in HEO originally from a launch on Fri, 24 Feb 2012 UTC launched from the Xichang Space Center, China (XSC). Debris objects in space refer to the collection of defunct objects orbiting the Earth. Examples of debris include non-operational satellites, rocket bodies, and fragments generated from explosions, collisions, or faulty payload assembly.

Loading next visibility...
Identifier
40856, 2012-008W
Orbit
HEO
Country
Flag of CNCN / PRC
Related business
Manufacturer
CALT
Mission
Spacecraft
Bus & Motor
Unknown
Mass
Unknown
Launch date (UTC)
2012-02-24 (14 years ago)
Launch vehicle
Unknown
Launch site
Xichang Space Center, China (XSC)
Object type
Payload
Rocket body
Debris
Shape & HBR
Unknown shape, 0.1 m
Radar Cross Section
Medium (>0.1 m² and <1 m²)

Expand to show TLE details & history
Last TLE update: 1 day ago

TLE from 1 day ago
0 CZ-3C DEB
1 40856U 12008W   26119.47445771 -.00000301  00000-0 -15288-2 0  9994
2 40856  21.9279 295.7564 7055195 318.0366   5.3292  2.35370856 98054
Epoch: 2026-04-29T11:23Z
TLE epoch observation values (Epoch: 2026-04-29T11:23:13.146Z)
Latitude
0.00033°
Longitude
-92.53448°
Altitude
1,490.035 km
Speed
9.199 km/s
True Right ascension
19h 42m 49s
True Declination
0° 00' 01"
Sunlit
Object was in daylight at epoch
Visualization orbit readout
Latitude
Unknown
Longitude
Unknown
Altitude
Unknown
Speed
Unknown
Apparent Right ascension
Unknown
Apparent Declination
Unknown
Sunlit
N/A
Visualization observer readout
Local Sidereal Time
18:58:44
Azimuth
Unknown
Elevation
Unknown
Doppler factor
Unknown
Orbital elements
Apogee altitude
34,344.095 km
Perigee altitude
653.095 km
Semi-major axis
23,876.732 km
Eccentricity
0.70552
Inclination
21.9279°
RAAN
295.7564°
Arg. of periapsis
318.0366°
True anomaly
40.5488°
Mean anomaly
5.3292°
Eccentric anomaly
17.45327°
Mean motion
0.58828 °/min
Orbital period
611.96 mins
BSTAR
-0.0015288
Loading maneuver chart data...
Computing Atmospheric mass density...
Loading historical data...
Loading historical data...
Loading historical data...
Loading historical data...
Loading historical data...
Loading historical data...
Loading historical data...

Documentation

Showing up to 5 results
|